Regional Weather Roundup
Issued by NWS Sterling, VA

Home | Current Version | Previous Version | Graphics & Text | Print | Product List | Glossary On
Versions: 1 2 3 4 5 6 7 8 9 10 11 12 13 14 15 16 17 18 19 20 21 22 23 24 25 26 27 28 29 30 31 32 33 34 35 36 37 38 39 40 41 42 43 44 45 46 47 48 49 50
000
ASUS41 KLWX 132110
RWRLWX

REGIONAL WEATHER ROUNDUP
NATIONAL WEATHER SERVICE BALTIMORE MD/WASHINGTON DC
400 PM EST SAT FEB 13 2016

Note: "FAIR" indicates few or no clouds below 12,000 feet
with no significant weather and/or obstructions to visibility.
 TC=TEMPERATURE CELSIUS

 * =Non NWS site. Station does not report precipitation (e.g. rain,
    snow, etc.), thunder, or fog.

DCZ001-MDZ009-015-VAZ040>042-051-053>054-132200-
WASHINGTON METRO

CITY           SKY/WX    TMP DP  RH WIND       PRES   REMARKS
WASHINGTON NAT PTSUNNY   21  -6  30 NW24G36   30.31R WCI   4
DULLES         PTSUNNY   20  -6  31 W25G32    30.31R WCI   2
ANDREWS AFB    MOSUNNY   20  -6  31 NW23G31   30.28R WCI   3
FT BELVOIR     FAIR      22  -9  25 NW20G32   30.31R WCI   7
QUANTICO       FAIR      25  -6  25 NW10G29   30.33R WCI  15
LEESBURG*      FAIR      21   0  39 NW22G30   30.31R WCI   5
MANASSAS*      MOSUNNY   21  -2  35 NW23G35   30.32R WCI   5
GAITHERSBURG*  PTSUNNY   18  -6  35 W18G24    30.32R WCI   2

$$

MDZ006>007-011-014-132200-
BALTIMORE METRO

CITY           SKY/WX    TMP DP  RH WIND       PRES   REMARKS
BWI AIRPORT    PTSUNNY   19  -4  36 NW15G24   30.29R WCI   5
MD SCIENCE CTR   N/A     19  -5  34 MISG      30.30S
MARTIN STATE   PTSUNNY   19   0  42 NW21G32   30.31R WCI   3
ANNAPOLIS      CLOUDY    21   0  39 NW21G28   30.29R WCI   5
FORT MEADE*    CLOUDY    21  -4  33 NW13G26   30.31R WCI   9

$$

MDZ012-015-019>023-132200-
MARYLAND EASTERN SHORE

CITY           SKY/WX    TMP DP  RH WIND       PRES   REMARKS
OCEAN CITY     MOSUNNY   23  -3  32 W18G31    30.23R WCI   9
SALISBURY      CLOUDY    24  -1  33 NW22G32   30.25R WCI   9
BAY BRIDGE AP*   N/A     21  -2  35 NW18G30   30.29R WCI   6
EASTON*        PTSUNNY   21   0  39 NW23G40   30.31R WCI   5

$$

MDZ017>025-132200-
SOUTHERN MARYLAND

CITY           SKY/WX    TMP DP  RH WIND       PRES   REMARKS
PATUXENT RIVER MOSUNNY   24  -4  29 NW24G35   30.28R WCI   8
ST INIGOES     SUNNY     25  -4  28 NW21G32   30.27R WCI  11
LEONARDTOWN*   NOT AVBL

$$

MDZ003>005-132200-
NORTH CENTRAL MARYLAND

CITY           SKY/WX    TMP DP  RH WIND       PRES   REMARKS
FREDERICK*     PTSUNNY   18   3  53 NW14G25   30.33R WCI   4
HAGERSTOWN APT CLOUDY    15  -3  44 NW18      30.28R WCI  -2
WESTMINSTER*   FLURRIES  14   7  73 NW12G22   30.23R WCI   0

$$

MDZ501>502-132200-
WESTERN MARYLAND

CITY           SKY/WX    TMP DP  RH WIND       PRES   REMARKS
OAKLAND*       PTSUNNY    3  -6  66 W13G25    30.11R HAZE    WCI -14
CUMBERLAND*    NOT AVBL

$$

VAZ025>031-132200-
SHENANDOAH VALLEY

CITY           SKY/WX    TMP DP  RH WIND       PRES   REMARKS
WINCHESTER*    CLOUDY    19  -4  35 NW21G32   30.30R WCI   3
FRONT ROYAL*   FAIR      19  -6  32 NW13G24   30.29R WCI   7
LURAY*         FAIR      19  -6  32 NW18G28   30.29R WCI   4
NEW MARKET*    FAIR      18  -6  35 N9G16     30.28R WCI   7
STAUNTON*      FAIR      25  -8  23 NW17      30.27R WCI  12
WAYNESBORO*    FAIR      21 -16  18 NW14G29   30.22R WCI   8

$$

WVZ021-048>050-054>055-132200-
EASTERN WEST VIRGINIA PANHANDLE

CITY           SKY/WX    TMP DP  RH WIND       PRES   REMARKS
MARTINSBURG    CLOUDY    17  -5  37 W20G29    30.30R WCI   1
PETERSBURG*    CLOUDY    16  -4  40 NW3       30.34R

$$

VAZ036>039-050-132200-
CENTRAL FOOTHILLS

CITY           SKY/WX    TMP DP  RH WIND       PRES   REMARKS
CHARLOTTESVILL FAIR      24  -9  23 N21       30.28R WCI   9
CULPEPER*      FAIR      21  -8  26 NW14G20   30.33R WCI   8
ORANGE*        FAIR      27  -8  22 NW16G22   30.31R WCI  14
GORDONSVILLE*  FAIR      24  -8  24 NW8       30.29R WCI  15
WARRENTON*     FAIR      24   0  35 NW18G25   30.30R WCI   9

$$

VAZ055>057-132200-
NORTH AND CENTRAL PIEDMONT

CITY           SKY/WX    TMP DP  RH WIND       PRES   REMARKS
FREDERICKSBRG* FAIR      25  -4  28 NW21G30   30.31R WCI  10
STAFFORD*      FAIR      24  -8  24 NW18G26   30.35R WCI  10

$$

NCZ024-NYZ072-PAZ021-071-VAZ022-071-132200-
OTHER REGIONAL OBSERVATIONS

CITY           SKY/WX    TMP DP  RH WIND       PRES   REMARKS
NEW YORK CITY  MOSUNNY   15 -13  27 NW14G28   30.16R WCI   0
PHILADELPHIA   PTSUNNY   18 -11  27 NW22G35   30.24R WCI   1
PITTSBURGH     LGT SNOW  11   1  64 NW24G35   30.34R WCI  -9
ROANOKE        FAIR      22  -4  32 NW21G30   30.32R WCI   6
RICHMOND       FAIR      29  -6  22 NW15      30.26R WCI  18
RALEIGH        MOSUNNY   33  -2  22 N7G16     30.29S

$$

ANZ530>537-132200-
MARINE OBSERVATIONS

STATION/POSITION TIME  TEMP    WIND        PRES
                       AIR SEA DIR/SP/G
                 (UTC) (F)     (DEG/KT/KT) (MB)
THOMAS PT LIGHT  2100   19 36  310/ 26/ 32 1025.8R
BALT KEY BRIDGE  2000   19     300/ 25/ 31 1024.5R
COVE POINT       2000   21     340/ 25/ 33 1025.4R
LEWISETTA        2000   24 36  350/ 20/ 26 1024.8R
SOLOMONS ISLAND  2000   23 39  310/ 14/ 21   N/A
PINEY POINT      2000          350/ 27/ 29   N/A

$$




USA.gov is the U.S. government's official web portal to all federal, state and local government web resources and services.